GW3053 Weather Reports


Display with metric or nautical units.
time (UTC)temp
F
wind
direction
speed
MPH
gust
MPH
rain 1hr
in
rain 24hr
in
rain mn
in
humidity
%
barometer
mb
20260503203527 64 236 6.0 17.0 0.00 0.00 0.00 51 1013.1
20260503203038 64 210 8.0 17.0 0.00 0.00 0.00 51 1013.0
20260503202528 63 262 4.0 14.0 0.00 0.00 0.00 52 1013.2
20260503202029 64 178 8.0 13.0 0.00 0.00 0.00 50 1013.2
20260503201539 64 223 6.0 14.0 0.00 0.00 0.00 51 1013.2
20260503201027 63 244 7.0 14.0 0.00 0.00 0.00 53 1013.2
20260503200527 62 209 4.0 12.0 0.00 0.00 0.00 54 1013.1
20260503200045 63 242 6.0 12.0 0.00 0.00 0.00 53 1013.3
20260503195525 63 273 7.0 12.0 0.00 0.00 0.00 53 1013.3
20260503195024 62 267 6.0 12.0 0.00 0.00 0.00 54 1013.5
20260503194538 63 277 6.0 11.0 0.00 0.00 0.00 52 1013.5
20260503194022 63 0 4.0 12.0 0.00 0.00 0.00 53 1013.5
20260503193522 62 255 6.0 12.0 0.00 0.00 0.00 53 1013.5
20260503193038 61 215 3.0 11.0 0.00 0.00 0.00 56 1013.6
20260503192522 61 270 7.0 13.0 0.00 0.00 0.00 56 1013.5
20260503192027 60 192 4.0 13.0 0.00 0.00 0.00 57 1013.5
20260503191542 60 273 6.0 13.0 0.00 0.00 0.00 57 1013.6
20260503191026 60 207 4.0 10.0 0.00 0.00 0.00 58 1013.7
20260503190522 60 270 4.0 10.0 0.00 0.00 0.00 59 1013.8
20260503190045 60 252 4.0 10.0 0.00 0.00 0.00 58 1013.8
20260503185522 60 217 5.0 12.0 0.00 0.00 0.00 59 1013.9
20260503185025 60 209 6.0 12.0 0.00 0.00 0.00 57 1013.8
20260503184538 61 180 7.0 14.0 0.00 0.00 0.00 57 1013.9
20260503184024 61 266 7.0 14.0 0.00 0.00 0.00 57 1013.8
20260503183522 60 249 6.0 13.0 0.00 0.00 0.00 58 1014.0
20260503183039 60 226 5.0 14.0 0.00 0.00 0.00 59 1014.1
20260503182526 60 240 6.0 14.0 0.00 0.00 0.00 58 1014.1
20260503182025 60 246 7.0 14.0 0.00 0.00 0.00 58 1014.2
20260503181537 60 242 7.0 12.0 0.00 0.00 0.00 61 1014.1
20260503181025 59 244 6.0 12.0 0.00 0.00 0.00 63 1014.2
20260503180524 58 262 6.0 12.0 0.00 0.00 0.00 64 1014.3
20260503180053 58 254 6.0 12.0 0.00 0.00 0.00 64 1014.2
20260503175522 57 292 5.0 12.0 0.00 0.00 0.00 66 1014.2
20260503175021 57 267 7.0 12.0 0.00 0.00 0.00 67 1014.2
20260503174539 57 232 6.0 12.0 0.00 0.00 0.00 68 1014.2
20260503174022 57 235 3.0 9.0 0.00 0.00 0.00 69 1014.2
20260503173523 56 273 5.0 12.0 0.00 0.00 0.00 71 1014.1
20260503173108 56 243 6.0 15.0 0.00 0.00 0.00 72 1014.2
20260503172525 56 260 6.0 15.0 0.00 0.00 0.00 71 1014.2
20260503172022 56 237 6.0 14.0 0.00 0.00 0.00 72 1014.1
20260503171543 55 221 6.0 14.0 0.00 0.00 0.00 72 1014.1
20260503171025 55 211 5.0 14.0 0.00 0.00 0.00 73 1014.0
20260503170522 55 232 6.0 11.0 0.00 0.00 0.00 76 1014.0
20260503150525 54 203 4.0 9.0 0.00 0.00 0.00 78 1013.0
20260503131028 48 0 0.0 0.0 0.00 0.00 0.00 88 1012.2
20260503130524 47 0 0.0 0.0 0.00 0.00 0.00 88 1012.1
20260503110527 50 0 0.0 2.0 0.00 0.00 0.00 82 1011.9
20260503081551 53 215 2.0 6.0 0.00 0.00 0.00 78 1012.4
20260503081024 54 202 3.0 6.0 0.00 0.00 0.00 79 1012.4
20260503080524 54 215 3.0 6.0 0.00 0.00 0.00 79 1012.5
20260503072525 54 246 4.0 8.0 0.00 0.00 0.00 79 1012.2
20260503072025 54 244 1.0 7.0 0.00 0.00 0.00 79 1012.2
20260503071542 54 244 3.0 8.0 0.00 0.00 0.00 79 1012.1
20260503071026 54 237 3.0 8.0 0.00 0.00 0.00 79 1012.1
20260503070524 54 247 3.0 7.0 0.00 0.00 0.00 79 1012.1
20260503055028 54 257 3.0 9.0 0.00 0.00 0.00 81 1011.8
20260503054539 54 276 2.0 6.0 0.00 0.00 0.00 82 1011.7
20260503054025 54 283 2.0 6.0 0.00 0.00 0.00 82 1011.7
20260503053524 54 264 1.0 7.0 0.00 0.00 0.00 82 1011.7
20260503053038 54 221 3.0 9.0 0.00 0.00 0.00 82 1011.6
20260503052525 54 206 3.0 9.0 0.00 0.00 0.00 83 1011.7
20260503052023 54 264 2.0 9.0 0.00 0.00 0.00 83 1011.6
20260503051535 53 220 3.0 9.0 0.00 0.00 0.00 83 1011.6
20260503051025 53 236 1.0 9.0 0.00 0.00 0.00 83 1011.4
20260503050525 53 270 2.0 9.0 0.00 0.00 0.00 83 1011.4
20260503050042 53 250 4.0 7.0 0.00 0.00 0.00 83 1011.5
20260503045525 53 275 0.0 8.0 0.00 0.00 0.00 84 1011.5
20260503045027 53 317 0.0 8.0 0.00 0.00 0.00 83 1011.4
20260503044542 53 263 3.0 8.0 0.00 0.00 0.00 84 1011.3
20260503044025 53 259 3.0 8.0 0.00 0.00 0.00 84 1011.0
20260503043524 53 236 2.0 9.0 0.00 0.00 0.00 84 1011.0
20260503043038 53 235 5.0 9.0 0.00 0.00 0.00 84 1011.0
20260503042524 53 188 2.0 7.0 0.00 0.00 0.00 83 1010.8
20260503042028 53 0 2.0 10.0 0.00 0.00 0.00 83 1011.0
20260503041541 53 222 2.0 10.0 0.00 0.00 0.00 83 1011.0
20260503041024 53 242 3.0 10.0 0.00 0.00 0.00 83 1011.0
20260503040525 53 223 3.0 15.0 0.00 0.00 0.00 83 1010.9
20260503040038 53 261 3.0 15.0 0.00 0.00 0.00 83 1010.9
20260503035528 53 236 6.0 15.0 0.00 0.00 0.00 83 1011.0
20260503035031 53 232 6.0 14.0 0.00 0.00 0.00 83 1010.9
20260503034544 53 360 4.0 11.0 0.00 0.00 0.00 83 1011.0
20260503034026 53 204 4.0 12.0 0.00 0.00 0.00 82 1010.9
20260503033526 53 188 5.0 12.0 0.00 0.00 0.00 82 1010.8
20260503033039 54 234 6.0 11.0 0.00 0.00 0.00 82 1010.8
20260503032528 54 196 3.0 10.0 0.00 0.00 0.00 81 1010.8
20260503032027 54 234 4.0 10.0 0.00 0.00 0.00 81 1010.8
20260503031548 54 232 4.0 8.0 0.00 0.00 0.00 81 1010.9
20260503031028 54 218 4.0 7.0 0.00 0.00 0.00 81 1010.8
20260503030527 54 254 3.0 7.0 0.00 0.00 0.00 81 1010.8
20260503030039 54 221 3.0 8.0 0.00 0.00 0.00 80 1010.9
20260503025529 54 222 3.0 8.0 0.00 0.00 0.00 80 1010.8
20260503025027 55 244 4.0 8.0 0.00 0.00 0.00 79 1010.7
20260503024538 55 225 5.0 8.0 0.00 0.00 0.00 79 1010.7
20260503024027 55 235 2.0 9.0 0.00 0.00 0.00 78 1010.6
20260503023528 55 244 4.0 11.0 0.00 0.00 0.00 78 1010.7
20260503023039 55 248 4.0 14.0 0.00 0.00 0.00 78 1010.7
20260503022527 56 245 7.0 14.0 0.00 0.00 0.00 77 1010.7
20260503022025 56 221 7.0 18.0 0.00 0.00 0.00 77 1010.7
20260503021546 56 252 10.0 18.0 0.00 0.00 0.00 77 1010.6
20260503021027 56 242 10.0 16.0 0.00 0.00 0.00 76 1010.5
20260503020524 57 234 11.0 16.0 0.00 0.00 0.00 75 1010.6
20260503020042 57 233 8.0 14.0 0.00 0.00 0.00 75 1010.5
20260503015525 58 242 7.0 11.0 0.00 0.00 0.00 73 1010.6
20260503015025 58 216 6.0 12.0 0.00 0.00 0.00 72 1010.5
20260503014538 59 277 4.0 12.0 0.00 0.00 0.00 71 1010.4
20260503014028 59 282 3.0 14.0 0.00 0.00 0.00 71 1010.4
20260503013530 60 254 7.0 14.0 0.00 0.00 0.00 70 1010.3
20260503013042 60 234 8.0 15.0 0.00 0.00 0.00 69 1010.2
20260503012526 60 234 7.0 15.0 0.00 0.00 0.00 68 1010.2
20260503012027 61 242 8.0 14.0 0.00 0.00 0.00 68 1010.3
20260503011544 61 227 8.0 14.0 0.00 0.00 0.00 68 1010.2
20260503011025 61 223 9.0 14.0 0.00 0.00 0.00 66 1010.2
20260503010525 62 248 8.0 12.0 0.00 0.00 0.00 66 1010.2
20260503010039 62 247 7.0 11.0 0.00 0.00 0.00 65 1010.2
20260503005525 63 242 5.0 9.0 0.00 0.00 0.00 63 1010.2
20260503005027 63 211 4.0 9.0 0.00 0.00 0.00 63 1010.3
20260503004605 63 0 2.0 9.0 0.00 0.00 0.00 63 1010.2
20260503004024 64 227 2.0 9.0 0.00 0.00 0.00 62 1010.3
20260503003526 64 208 4.0 9.0 0.00 0.00 0.00 62 1010.4
20260503003039 64 275 4.0 9.0 0.00 0.00 0.00 61 1010.3
20260503002529 65 219 5.0 12.0 0.00 0.00 0.00 61 1010.4
20260503002024 65 188 6.0 12.0 0.00 0.00 0.00 60 1010.3
20260503001538 65 244 6.0 11.0 0.00 0.00 0.00 60 1010.3
20260503001025 65 240 7.0 11.0 0.00 0.00 0.00 59 1010.3
20260503000528 66 234 4.0 10.0 0.00 0.00 0.00 59 1010.2
20260503000056 66 188 1.0 9.0 0.00 0.00 0.00 58 1010.2
20260502235525 66 223 4.0 9.0 0.00 0.00 0.00 59 1010.2
20260502235025 66 232 1.0 10.0 0.00 0.00 0.00 59 1010.2
20260502234539 66 227 5.0 12.0 0.00 0.00 0.00 58 1010.2
20260502234025 66 232 2.0 12.0 0.00 0.00 0.00 58 1010.3
20260502233526 67 300 5.0 14.0 0.00 0.00 0.00 58 1010.2
20260502233038 67 261 3.0 14.0 0.00 0.00 0.00 57 1010.3
20260502232529 67 238 9.0 14.0 0.00 0.00 0.00 59 1010.3
20260502232025 67 195 8.0 14.0 0.00 0.00 0.00 57 1010.3
20260502231551 68 224 8.0 14.0 0.00 0.00 0.00 56 1010.4
20260502231023 67 238 8.0 14.0 0.00 0.00 0.00 59 1010.4
20260502230525 66 217 9.0 15.0 0.00 0.00 0.00 60 1010.4
20260502230041 66 229 10.0 15.0 0.00 0.00 0.00 61 1010.4
20260502225524 66 265 7.0 15.0 0.00 0.00 0.00 61 1010.6
20260502225029 66 221 7.0 16.0 0.00 0.00 0.00 61 1010.8
20260502224538 67 240 11.0 16.0 0.00 0.00 0.00 60 1011.0
20260502224027 67 231 8.0 15.0 0.00 0.00 0.00 60 1011.0
20260502223526 67 244 7.0 14.0 0.00 0.00 0.00 59 1011.2
20260502223038 68 209 8.0 14.0 0.00 0.00 0.00 58 1011.2
20260502222527 69 206 7.0 12.0 0.00 0.00 0.00 58 1011.3
20260502222029 68 191 8.0 13.0 0.00 0.00 0.00 58 1011.3
20260502221538 67 175 7.0 13.0 0.00 0.00 0.00 61 1011.3
20260502221026 67 219 8.0 12.0 0.00 0.00 0.00 61 1011.4
20260502220526 67 244 7.0 12.0 0.00 0.00 0.00 61 1011.4
20260502220047 67 255 7.0 12.0 0.00 0.00 0.00 61 1011.6
20260502215526 67 265 6.0 16.0 0.00 0.00 0.00 61 1011.7
20260502215028 66 243 8.0 17.0 0.00 0.00 0.00 63 1011.8
20260502214544 66 294 9.0 17.0 0.00 0.00 0.00 62 1011.9
20260502214027 65 266 10.0 17.0 0.00 0.00 0.00 63 1012.0
20260502213528 66 277 8.0 15.0 0.00 0.00 0.00 63 1012.1
20260502213040 66 253 9.0 15.0 0.00 0.00 0.00 64 1012.2
20260502212528 65 230 9.0 14.0 0.00 0.00 0.00 63 1012.2
20260502212029 65 291 7.0 14.0 0.00 0.00 0.00 64 1012.3
20260502211538 65 211 8.0 15.0 0.00 0.00 0.00 64 1012.3
20260502211027 65 213 9.0 15.0 0.00 0.00 0.00 64 1012.3
20260502210529 65 263 8.0 15.0 0.00 0.00 0.00 64 1012.5
20260502210038 65 241 7.0 14.0 0.00 0.00 0.00 64 1012.5
20260502205527 65 241 8.0 14.0 0.00 0.00 0.00 64 1012.4
20260502205029 65 211 5.0 15.0 0.00 0.00 0.00 67 1012.5
20260502204541 64 243 8.0 16.0 0.00 0.00 0.00 66 1012.7
20260502204025 63 226 9.0 16.0 0.00 0.00 0.00 68 1012.7